Location: Bosdarros
(43.2167°N, 0.3667°W)
Time: 08:06:36
(UTC+00:00)

ERS-2 - Pass Details

Date: 22 April 2021
Orbit: 491 x 497 km, 98.6° (Epoch: 07 May)

Event Time Altitude Azimuth Distance (km) Brightness Sun altitude
Rises 19:18:45 0° 15° (NNE) 2,585 5.9 -5.3°
Reaches altitude 10° 19:20:50 10° 17° (NNE) 1,697 4.9 -5.6°
Maximum altitude 19:24:29 76° 103° (ESE) 513 2.0 -6.2°
Drops below altitude 10° 19:28:05 10° 190° (S) 1,679 4.7 -6.8°
Sets 19:30:09 0° 192° (SSW) 2,555 5.6 -7.2°
